Location: Borgo
(42.3939°N, 9.2791°E)
Time: 01:52:09
(UTC+00:00)

Nadezhda 4 Rocket - Pass Details

Date: 24 January 2021
Orbit: 949 x 992 km, 83.0° (Epoch: 08 March)

Event Time Altitude Azimuth Distance (km) Brightness Sun altitude
Rises 16:58:53 0° 172° (S) 3,671 7.2 -6.3°
Reaches altitude 10° 17:01:26 10° 169° (SSE) 2,721 6.5 -6.8°
Maximum altitude 17:07:30 57° 92° (E) 1,137 4.1 -7.8°
Drops below altitude 10° 17:13:33 10° 16° (NNE) 2,709 6.0 -8.9°
Sets 17:16:05 0° 12° (NNE) 3,654 6.7 -9.3°
